FENGYUN 1C DEB, 31259

Orbit data source: Space-Track

FENGYUN 1C DEB, 31259 is space debris in SSO originally from a launch on Mon, 10 May 1999 UTC launched from the Taiyaun Space Center, China (TSC). Fengyun 1C debris stems from the Chinese weather satellite Fengyun-1C, which was intentionally destroyed by a Chinese anti-satellite missile in 2007. This event dramatically increased the amount of space debris, with thousands of trackable fragments posing hazards to satellites and human spaceflight. The Fengyun 1C debris cloud has become a focal point in discussions about space sustainability and the need for international regulations to prevent the creation of new debris.

Loading next visibility...
Identifier
31259, 1999-025BMR
Orbit
SSO
Country
Flag of CNCN / PRC
Related business
Manufacturer
Unknown
Mission
Spacecraft
Bus & Motor
Unknown
Mass
Unknown
Launch date (UTC)
1999-05-10 (27 years ago)
Launch vehicle
Unknown
Launch site
Taiyaun Space Center, China (TSC)
Object type
Payload
Rocket body
Debris
Shape & HBR
Unknown shape, 0.1 m
Radar Cross Section
Small (<0.1 m²)

Expand to show TLE details & history
Last TLE update: 1 day ago

TLE from 1 day ago
0 FENGYUN 1C DEB
1 31259U 99025BMR 26121.75017113  .00003274  00000-0  16493-2 0  9993
2 31259  98.9992 207.3279 0065997 158.6832 331.3087 14.15929924975504
Epoch: 2026-05-01T18:00Z
TLE epoch observation values (Epoch: 2026-05-01T18:00:14.785Z)
Latitude
49.6299°
Longitude
-91.73354°
Altitude
805.26 km
Speed
7.477 km/s
True Right ascension
02h 32m 01s
True Declination
49° 27' 40"
Sunlit
Object was in daylight at epoch
Visualization orbit readout
Latitude
Unknown
Longitude
Unknown
Altitude
Unknown
Speed
Unknown
Apparent Right ascension
Unknown
Apparent Declination
Unknown
Sunlit
N/A
Visualization observer readout
Local Sidereal Time
01:53:57
Azimuth
Unknown
Elevation
Unknown
Doppler factor
Unknown
Orbital elements
Apogee altitude
883.942 km
Perigee altitude
788.715 km
Semi-major axis
7,214.465 km
Eccentricity
0.0066
Inclination
98.9992°
RAAN
207.3279°
Arg. of periapsis
158.6832°
True anomaly
330.94298°
Mean anomaly
331.3087°
Eccentric anomaly
331.1261°
Mean motion
3.54191 °/min
Orbital period
101.64 mins
BSTAR
0.0016493
Loading maneuver chart data...
Computing Atmospheric mass density...

Documentation

Showing up to 5 results
|